• In Netherlands
  • List of Countries
  • For 7 days
  • Water Temperature
  • Satellite Maps
  • Weather Map
  • Weather Widgets
  • user-avatar
    Login

    Hourly Weather Barra

    Today, 19 November, Sunday

    Time Temperature Precipitation Wind Pressure Humidity
    00:00 +24°C° 0 mm 2 mps 747 mmHg 90%
    01:00 +24°C° 0 mm 2 mps 746 mmHg 91%
    02:00 +24°C° 0 mm 2 mps 746 mmHg 92%
    03:00 +23°C° 0 mm 2 mps 746 mmHg 92%
    04:00 +23°C° 0 mm 2 mps 746 mmHg 93%
    05:00 +24°C° 0 mm 2 mps 747 mmHg 89%
    06:00 +25°C° 0 mm 2 mps 747 mmHg 85%
    07:00 +26°C° 0 mm 2 mps 747 mmHg 80%
    08:00 +28°C° 0 mm 2 mps 747 mmHg 72%
    09:00 +30°C° 0 mm 2 mps 747 mmHg 64%
    10:00 +32°C° 0 mm 2 mps 748 mmHg 54%
    11:00 +32°C° 0 mm 2 mps 747 mmHg 53%
    12:00 +33°C° 0 mm 3 mps 747 mmHg 52%
    13:00 +33°C° 0 mm 3 mps 747 mmHg 52%
    14:00 +33°C° 0 mm 3 mps 746 mmHg 54%
    15:00 +31°C° 0 mm 3 mps 746 mmHg 56%
    16:00 +30°C° 0 mm 3 mps 745 mmHg 59%
    17:00 +29°C° 0 mm 3 mps 746 mmHg 65%
    18:00 +28°C° 0 mm 3 mps 746 mmHg 71%
    19:00 +26°C° 0 mm 3 mps 746 mmHg 77%
    20:00 +26°C° 0 mm 3 mps 746 mmHg 79%
    21:00 +26°C° 0 mm 3 mps 747 mmHg 80%
    22:00 +25°C° 0 mm 3 mps 747 mmHg 81%
    23:00 +25°C° 0.1 mm 3 mps 747 mmHg 82%

    Tomorrow, 20 November, Monday

    Time Temperature Precipitation Wind Pressure Humidity
    00:00 +25°C° 0.1 mm 3 mps 747 mmHg 83%
    01:00 +25°C° 0.1 mm 3 mps 747 mmHg 84%
    02:00 +25°C° 0.1 mm 3 mps 747 mmHg 86%
    03:00 +25°C° 0.1 mm 3 mps 747 mmHg 88%
    04:00 +24°C° 0.1 mm 3 mps 747 mmHg 89%
    05:00 +25°C° 0.1 mm 3 mps 748 mmHg 87%
    06:00 +25°C° 0.1 mm 3 mps 748 mmHg 84%
    07:00 +26°C° 0.1 mm 3 mps 748 mmHg 82%
    08:00 +27°C° 0.1 mm 2 mps 748 mmHg 75%
    09:00 +29°C° 0.1 mm 2 mps 748 mmHg 68%
    10:00 +30°C° 0.1 mm 2 mps 748 mmHg 61%
    11:00 +30°C° 0 mm 3 mps 748 mmHg 59%
    12:00 +31°C° 0 mm 3 mps 747 mmHg 57%
    13:00 +31°C° 0 mm 3 mps 747 mmHg 56%
    14:00 +31°C° 0 mm 3 mps 747 mmHg 58%
    15:00 +30°C° 0 mm 3 mps 746 mmHg 60%
    16:00 +30°C° 0 mm 3 mps 746 mmHg 62%
    17:00 +28°C° 0 mm 3 mps 746 mmHg 68%
    18:00 +27°C° 0 mm 4 mps 747 mmHg 74%
    19:00 +26°C° 0 mm 4 mps 747 mmHg 80%
    20:00 +26°C° 0.3 mm 4 mps 747 mmHg 83%
    21:00 +25°C° 0.3 mm 4 mps 748 mmHg 86%
    22:00 +25°C° 0.3 mm 4 mps 748 mmHg 88%
    23:00 +25°C° 1 mm 4 mps 748 mmHg 90%

    Day after tomorrow, 21 November, Tuesday

    Time Temperature Precipitation Wind Pressure Humidity
    00:00 +25°C° 1 mm 4 mps 748 mmHg 91%
    01:00 +23°C° 1 mm 4 mps 747 mmHg 92%
    02:00 +24°C° 2 mm 3 mps 747 mmHg 93%
    03:00 +24°C° 2 mm 3 mps 747 mmHg 94%
    04:00 +22°C° 2 mm 3 mps 747 mmHg 95%
    05:00 +24°C° 0.9 mm 3 mps 747 mmHg 94%
    06:00 +24°C° 0.9 mm 3 mps 747 mmHg 93%
    07:00 +24°C° 0.9 mm 3 mps 748 mmHg 91%
    08:00 +25°C° 0.7 mm 3 mps 748 mmHg 85%
    09:00 +27°C° 0.7 mm 3 mps 748 mmHg 78%
    10:00 +28°C° 0.7 mm 3 mps 748 mmHg 71%
    11:00 +29°C° 0.3 mm 3 mps 748 mmHg 68%
    12:00 +29°C° 0.3 mm 3 mps 747 mmHg 65%
    13:00 +30°C° 0.3 mm 3 mps 747 mmHg 61%
    14:00 +30°C° 0.1 mm 4 mps 746 mmHg 63%
    15:00 +29°C° 0.1 mm 4 mps 746 mmHg 64%
    16:00 +29°C° 0.1 mm 4 mps 745 mmHg 66%
    17:00 +27°C° 0.3 mm 4 mps 745 mmHg 73%
    18:00 +26°C° 0.3 mm 4 mps 745 mmHg 79%
    19:00 +25°C° 0.3 mm 4 mps 745 mmHg 86%
    20:00 +25°C° 0.9 mm 4 mps 746 mmHg 88%
    21:00 +23°C° 0.9 mm 4 mps 746 mmHg 89%
    22:00 +23°C° 0.9 mm 4 mps 747 mmHg 90%
    23:00 +24°C° 0.9 mm 3 mps 747 mmHg 91%

    22 November, Wednesday

    Time Temperature Precipitation Wind Pressure Humidity
    00:00 +22°C° 0.9 mm 3 mps 746 mmHg 92%
    01:00 +22°C° 0.9 mm 3 mps 746 mmHg 93%
    02:00 +23°C° 1.4 mm 2 mps 745 mmHg 94%
    03:00 +23°C° 1.4 mm 2 mps 745 mmHg 95%
    04:00 +23°C° 1.4 mm 1 mps 745 mmHg 95%
    05:00 +23°C° 0.6 mm 2 mps 745 mmHg 95%
    06:00 +23°C° 0.6 mm 2 mps 745 mmHg 94%
    07:00 +23°C° 0.6 mm 2 mps 746 mmHg 94%
    08:00 +24°C° 0.1 mm 2 mps 746 mmHg 88%
    09:00 +25°C° 0.1 mm 2 mps 746 mmHg 83%
    10:00 +27°C° 0.1 mm 1 mps 746 mmHg 77%
    11:00 +28°C° 0.1 mm 1 mps 746 mmHg 70%
    12:00 +30°C° 0.1 mm 1 mps 746 mmHg 63%
    13:00 +31°C° 0.1 mm 2 mps 745 mmHg 56%
    14:00 +30°C° 0.1 mm 2 mps 745 mmHg 58%
    15:00 +30°C° 0.1 mm 3 mps 744 mmHg 60%
    16:00 +30°C° 0.1 mm 3 mps 744 mmHg 63%
    17:00 +28°C° 0.2 mm 3 mps 744 mmHg 71%
    18:00 +26°C° 0.2 mm 3 mps 744 mmHg 78%
    19:00 +25°C° 0.2 mm 3 mps 744 mmHg 86%
    20:00 +25°C° 0.1 mm 3 mps 745 mmHg 88%
    21:00 +25°C° 0.1 mm 3 mps 745 mmHg 89%
    22:00 +24°C° 0.1 mm 3 mps 745 mmHg 91%
    23:00 +24°C° 0.2 mm 3 mps 745 mmHg 91%

    23 November, Thursday

    Time Temperature Precipitation Wind Pressure Humidity
    00:00 +24°C° 0.2 mm 3 mps 745 mmHg 91%
    01:00 +24°C° 0.2 mm 3 mps 744 mmHg 92%
    02:00 +24°C° 1 mm 3 mps 744 mmHg 92%
    03:00 +24°C° 1 mm 3 mps 744 mmHg 93%
    04:00 +23°C° 1 mm 2 mps 744 mmHg 94%
    05:00 +24°C° 1.4 mm 2 mps 745 mmHg 93%
    06:00 +24°C° 1.4 mm 2 mps 746 mmHg 93%
    07:00 +24°C° 1.4 mm 1 mps 746 mmHg 92%
    08:00 +24°C° 0.6 mm 1 mps 747 mmHg 90%
    09:00 +25°C° 0.6 mm 1 mps 747 mmHg 89%
    10:00 +25°C° 0.6 mm 1 mps 747 mmHg 88%
    11:00 +26°C° 0.1 mm 1 mps 746 mmHg 83%
    12:00 +27°C° 0.1 mm 1 mps 746 mmHg 79%
    13:00 +27°C° 0.1 mm 2 mps 745 mmHg 75%
    14:00 +28°C° 0 mm 2 mps 745 mmHg 72%
    15:00 +29°C° 0 mm 2 mps 744 mmHg 68%
    16:00 +29°C° 0 mm 3 mps 744 mmHg 64%
    17:00 +28°C° 0.1 mm 3 mps 744 mmHg 72%
    18:00 +26°C° 0.1 mm 2 mps 745 mmHg 79%
    19:00 +25°C° 0.1 mm 2 mps 745 mmHg 87%
    20:00 +25°C° 0.9 mm 2 mps 746 mmHg 89%
    21:00 +24°C° 0.9 mm 2 mps 746 mmHg 92%
    22:00 +24°C° 0.9 mm 2 mps 747 mmHg 94%
    23:00 +24°C° 0.5 mm 2 mps 746 mmHg 94%

    24 November, Friday

    Time Temperature Precipitation Wind Pressure Humidity
    00:00 +24°C° 0.5 mm 2 mps 746 mmHg 94%
    01:00 +24°C° 0.5 mm 2 mps 746 mmHg 93%
    02:00 +24°C° 0 mm 2 mps 746 mmHg 94%
    03:00 +23°C° 0 mm 1 mps 746 mmHg 95%
    04:00 +23°C° 0 mm 1 mps 746 mmHg 96%
    05:00 +24°C° 0 mm 1 mps 746 mmHg 94%
    06:00 +24°C° 0 mm 1 mps 747 mmHg 91%
    07:00 +25°C° 0 mm 1 mps 747 mmHg 89%
    08:00 +26°C° 0 mm 1 mps 747 mmHg 82%
    09:00 +28°C° 0 mm 1 mps 747 mmHg 76%
    10:00 +29°C° 0 mm 1 mps 747 mmHg 69%
    11:00 +30°C° 0.1 mm 1 mps 747 mmHg 66%
    12:00 +30°C° 0.1 mm 2 mps 746 mmHg 63%
    13:00 +31°C° 0.1 mm 2 mps 746 mmHg 59%
    14:00 +31°C° 0.3 mm 2 mps 746 mmHg 61%
    15:00 +31°C° 0.3 mm 2 mps 745 mmHg 63%
    16:00 +30°C° 0.3 mm 3 mps 745 mmHg 65%
    17:00 +29°C° 0.2 mm 2 mps 746 mmHg 72%
    18:00 +27°C° 0.2 mm 2 mps 746 mmHg 80%
    19:00 +26°C° 0.2 mm 2 mps 747 mmHg 87%
    20:00 +26°C° 0.5 mm 1 mps 747 mmHg 89%
    21:00 +25°C° 0.5 mm 1 mps 747 mmHg 91%
    22:00 +25°C° 0.5 mm 1 mps 748 mmHg 93%
    23:00 +25°C° 0.5 mm 1 mps 747 mmHg 94%
    Show more